Caldwell, NJ

4:28 PM EDT on September 23, 2017 (GMT -0400)
Essex County

Weather History for KCDW - January, 2013

Change the Weather History Date:

Tuesday, January 29, 2013

  Actual Average Record
Temperature  
Mean Temperature 43 °F -  
Max Temperature 53 °F 36 °F 66 °F (2002)
Min Temperature 33 °F 19 °F -5 °F (1963)
Degree Days  
Heating Degree Days 22    
Moisture  
Dew Point 37 °F    
Average Humidity 88    
Maximum Humidity 100    
Minimum Humidity 59    
Precipitation  
Precipitation 0.11 in - - ()
Sea Level Pressure  
Sea Level Pressure 30.11 in    
Wind  
Wind Speed 2 mph (ESE)    
Max Wind Speed 12 mph    
Max Gust Speed -    
Visibility 3 miles    
Events Rain    
Averages and records for this station are not official NWS values.
T = Trace of Precipitation, MM = Missing Value Source: NWS Daily Summary

Daily Weather History Graph

Daily Weather History Graph

Search for Another Location

Airport or City:

Trip Planner

Search our weather history database for the weather conditions in past years. The results will help you decide how hot, cold, wet, or windy it might be!

Date:

Astronomy

Jan. 29, 2013 Rise Set
Actual Time 7:10 AM EST 5:11 PM EST
Civil Twilight 6:40 AM EST 5:40 PM EST
Nautical Twilight 6:07 AM EST 6:13 PM EST
Astronomical Twilight 5:35 AM EST 6:45 PM EST
Moon 8:06 PM EST (1/29) 8:04 AM EST (1/29)
Length of Visible Light 10h 59m
Length of Day
10h 01m
Waning Gibbous, 94% of the Moon is Illuminated
Jan 29
Waning Gibbous
Feb 3
Last Quarter
Feb 10
New
Feb 17
First Quarter
Feb 25
Full

Hourly Weather History & Observations

Time (EST) Temp. Windchill Dew Point Humidity Pressure Visibility Wind Dir Wind Speed Gust Speed Precip Events Conditions
12:31 AM 33.8 °F - 30.2 °F 87% 30.01 in 3.0 mi Calm Calm - N/A   Overcast
12:53 AM 34.0 °F 31.0 °F 30.0 °F 85% 30.03 in 3.0 mi SW 3.5 mph - N/A   Overcast
1:53 AM 34.0 °F 31.0 °F 32.0 °F 92% 30.04 in 3.0 mi WSW 3.5 mph - N/A   Overcast
2:53 AM 35.1 °F - 33.1 °F 92% 30.04 in 3.0 mi Calm Calm - N/A   Overcast
3:20 AM 35.6 °F - 33.8 °F 93% 30.01 in 2.5 mi Calm Calm - N/A   Overcast
3:53 AM 35.1 °F - 33.1 °F 92% 30.04 in 2.5 mi Calm Calm - N/A   Overcast
4:53 AM 36.0 °F 32.1 °F 34.0 °F 93% 30.07 in 2.0 mi NE 4.6 mph - N/A   Overcast
5:02 AM 35.6 °F 32.8 °F 33.8 °F 93% 30.05 in 3.0 mi East 3.5 mph - N/A   Overcast
5:53 AM 36.0 °F - 34.0 °F 93% 30.10 in 4.0 mi Calm Calm - N/A   Overcast
6:53 AM 35.1 °F - 33.1 °F 92% 30.12 in 3.0 mi Calm Calm - N/A   Overcast
7:21 AM 35.6 °F - 33.8 °F 93% 30.10 in 1.8 mi Calm Calm - N/A   Overcast
7:53 AM 35.1 °F - 34.0 °F 96% 30.13 in 1.2 mi Calm Calm - N/A   Overcast
8:10 AM 35.6 °F - 35.6 °F 100% 30.11 in 2.5 mi Calm Calm - N/A   Overcast
8:50 AM 39.2 °F - 37.4 °F 93% 30.12 in 3.0 mi Calm Calm - N/A   Overcast
8:53 AM 39.9 °F 37.8 °F 37.9 °F 93% 30.14 in 3.0 mi SSW 3.5 mph - N/A   Overcast
9:53 AM 46.0 °F - 39.9 °F 79% 30.15 in 6.0 mi Calm Calm - N/A   Haze
10:53 AM 50.0 °F - 39.9 °F 68% 30.15 in 10.0 mi Calm Calm - N/A   Scattered Clouds
11:53 AM 52.0 °F - 39.9 °F 63% 30.12 in 10.0 mi Calm Calm - N/A   Overcast
12:53 PM 53.1 °F - 39.0 °F 59% 30.11 in 10.0 mi Calm Calm - N/A   Mostly Cloudy
1:53 PM 53.1 °F - 39.9 °F 61% 30.09 in 10.0 mi Calm Calm - N/A   Overcast
2:53 PM 46.0 °F 40.6 °F 37.9 °F 73% 30.10 in 4.0 mi SSE 11.5 mph - N/A   Haze
3:53 PM 44.1 °F 42.5 °F 37.9 °F 79% 30.14 in 4.0 mi Variable 3.5 mph - N/A   Haze
4:37 PM 42.8 °F - 37.4 °F 81% 30.12 in 4.0 mi Calm Calm - N/A   Haze
4:53 PM 43.0 °F - 37.9 °F 82% 30.14 in 4.0 mi Calm Calm - N/A   Haze
5:53 PM 43.0 °F 40.3 °F 39.0 °F 86% 30.15 in 5.0 mi ENE 4.6 mph - 0.00 in Rain Light Rain
6:06 PM 42.8 °F 38.0 °F 39.2 °F 87% 30.12 in 2.5 mi SE 8.1 mph - 0.04 in Rain Rain
6:13 PM 42.8 °F 38.6 °F 37.4 °F 81% 30.11 in 2.5 mi SE 6.9 mph - 0.06 in Rain Rain
6:30 PM 41.0 °F - 39.2 °F 93% 30.12 in 3.0 mi Calm Calm - 0.07 in Rain Light Rain
6:53 PM 41.0 °F - 39.0 °F 93% 30.14 in 2.5 mi Calm Calm - 0.08 in Rain Light Rain
7:00 PM 42.8 °F - 39.2 °F 87% 30.12 in 3.0 mi Calm Calm - 0.00 in Rain Light Rain
7:10 PM 41.0 °F - 39.2 °F 93% 30.14 in 2.5 mi Calm Calm - 0.01 in Rain Light Rain
7:53 PM 39.9 °F - 39.0 °F 97% 30.15 in 2.0 mi Calm Calm - 0.03 in   Overcast
8:32 PM 39.2 °F - 37.4 °F 93% 30.12 in 1.8 mi Calm Calm - N/A   Overcast
8:53 PM 39.0 °F - 37.9 °F 96% 30.14 in 1.0 mi Calm Calm - N/A   Overcast
9:26 PM 39.2 °F - 37.4 °F 93% 30.12 in 0.8 mi Calm Calm - N/A   Overcast
9:53 PM 39.0 °F - 37.9 °F 96% 30.12 in 0.8 mi Calm Calm - N/A   Overcast
10:07 PM 39.2 °F - 39.2 °F 100% 30.11 in 1.5 mi Calm Calm - N/A   Overcast
10:53 PM 39.0 °F 35.7 °F 37.9 °F 96% 30.12 in 1.8 mi ENE 4.6 mph - N/A   Overcast
11:30 PM 39.2 °F 35.0 °F 37.4 °F 93% 30.10 in 1.2 mi ENE 5.8 mph - N/A   Overcast
11:53 PM 37.9 °F 32.7 °F 37.0 °F 97% 30.11 in 1.2 mi ENE 6.9 mph - N/A   Overcast